{"data":{"norad_id":67771,"epoch":"2026-09-20T22:00:03.000096Z","epoch_age_seconds":53213,"freshness":"FRESH","line1":"1 67771U 26030H   26263.91670139 -.01169015  00000+0 -72884-1 0  9998","line2":"2 67771  51.8913 358.3245 0012339  33.3541 286.8298 15.12013112  5830","mean_motion":15.12013112,"eccentricity":0.0012339,"inclination_deg":51.8913,"raan_deg":358.3245,"arg_perigee_deg":33.3541,"mean_anomaly_deg":286.8298,"bstar":-0.072884,"rev_number":583,"period_min":95.237269344527,"perigee_km":521.53739475536,"apogee_km":538.58544681818,"semimajor_km":6908.1984207868,"source":"CELESTRAK","updated_at":"2026-09-21T09:00:16.828884Z"}}